Location: Moscow
(38.8570°N, 84.2291°W)
Time: 20:10:33
(UTC+00:00)

NANOSAT C BR1 - Pass Details

Date: 12 March 2026
Orbit: 474 x 480 km, 98.1° (Epoch: 21 April)

Event Time Altitude Azimuth Distance (km) Brightness Sun altitude
Rises 00:23:05 0° 177° (S) 2,543 ? -9.2°
Reaches altitude 10° 00:25:10 10° 182° (S) 1,667 ? -9.6°
Maximum altitude 00:28:40 52° 259° (W) 614 ? -10.3°
Drops below altitude 10° 00:32:12 10° 337° (NNW) 1,676 ? -11.0°
Sets 00:34:18 0° 342° (NNW) 2,560 ? -11.4°
